Caldwell, NJ

7:51 PM EST on November 11, 2019 (GMT -0500)
Essex County

Weather History for KCDW - September, 2019

Change the Weather History Date:

Saturday, September 14, 2019

  Actual Average Record
Temperature  
Mean Temperature 68 °F -  
Max Temperature 75 °F 77 °F 92 °F (1952)
Min Temperature 60 °F 53 °F 38 °F (1963)
Cooling Degree Days 2    
Growing Degree Days 18 (Base 50)    
Moisture  
Dew Point 61 °F    
Average Humidity 75    
Maximum Humidity 90    
Minimum Humidity 66    
Precipitation  
Precipitation 0.00 in - - ()
Sea Level Pressure  
Sea Level Pressure 30.27 in    
Wind  
Wind Speed 1 mph ()    
Max Wind Speed 7 mph    
Max Gust Speed -    
Visibility 10.0 miles    
Events Rain    
Averages and records for this station are not official NWS values.
T = Trace of Precipitation, MM = Missing Value Source: Averaged Metar Reports

Daily Weather History Graph

Daily Weather History Graph

Search for Another Location

Airport or City:

Astronomy

Sep. 14, 2019 Rise Set
Actual Time 6:36 AM EDT 7:08 PM EDT
Civil Twilight 6:08 AM EDT 7:35 PM EDT
Nautical Twilight 5:36 AM EDT 8:08 PM EDT
Astronomical Twilight 5:02 AM EDT 8:41 PM EDT
Moon 7:48 PM EDT (9/14) 6:47 AM EDT (9/14)
Length of Visible Light 13h 26m
Length of Day
12h 31m
Full, 100% of the Moon is Illuminated
Sep 14
Full
Sep 21
Last Quarter
Sep 28
New
Oct 5
First Quarter
Oct 13
Full

Hourly Weather History & Observations

Time (EDT) Temp. Dew Point Humidity Pressure Visibility Wind Dir Wind Speed Gust Speed Precip Events Conditions
12:53 AM 62.1 °F 51.1 °F 67% 30.42 in 10.0 mi Calm Calm - N/A   Scattered Clouds
1:53 AM 60.1 °F 53.1 °F 78% 30.41 in 10.0 mi Calm Calm - N/A   Mostly Cloudy
2:53 AM 62.1 °F 54.0 °F 75% 30.37 in 10.0 mi Calm Calm - N/A   Overcast
3:53 AM 63.0 °F 55.0 °F 75% 30.37 in 10.0 mi Calm Calm - N/A   Overcast
4:53 AM 62.1 °F 54.0 °F 75% 30.35 in 10.0 mi Calm Calm - N/A   Overcast
5:53 AM 62.1 °F 55.0 °F 78% 30.36 in 10.0 mi Calm Calm - N/A   Overcast
6:53 AM 62.1 °F 55.9 °F 80% 30.34 in 10.0 mi ESE 4.6 mph - N/A   Overcast
7:53 AM 64.0 °F 57.0 °F 78% 30.35 in 10.0 mi Calm Calm - N/A   Overcast
8:53 AM 66.0 °F 57.9 °F 75% 30.34 in 10.0 mi Calm Calm - N/A   Overcast
9:53 AM 68.0 °F 59.0 °F 73% 30.34 in 10.0 mi Calm Calm - N/A   Overcast
10:53 AM 71.1 °F 59.0 °F 66% 30.32 in 10.0 mi Variable 6.9 mph - N/A   Overcast
11:53 AM 73.0 °F 61.0 °F 66% 30.30 in 10.0 mi SW 5.8 mph - N/A   Overcast
12:53 PM 73.0 °F 61.0 °F 66% 30.29 in 10.0 mi SW 3.5 mph - N/A   Overcast
1:53 PM 73.9 °F 62.1 °F 66% 30.25 in 10.0 mi WSW 3.5 mph - N/A   Overcast
2:53 PM 75.0 °F 63.0 °F 66% 30.23 in 10.0 mi SSW 3.5 mph - N/A   Overcast
3:53 PM 75.9 °F 64.0 °F 67% 30.20 in 10.0 mi SW 3.5 mph - N/A   Overcast
4:42 PM 75.9 °F 64.0 °F 67% 30.18 in 10.0 mi Calm Calm - N/A   Overcast
4:53 PM 75.9 °F 64.0 °F 67% 30.19 in 10.0 mi Variable 4.6 mph - N/A   Overcast
5:07 PM 75.9 °F 64.0 °F 67% 30.18 in 10.0 mi SSW 4.6 mph - N/A   Overcast
5:53 PM 75.9 °F 64.9 °F 69% 30.18 in 10.0 mi Variable 3.5 mph - N/A   Overcast
6:53 PM 75.0 °F 66.0 °F 73% 30.19 in 10.0 mi Calm Calm - N/A   Overcast
7:53 PM 73.0 °F 66.9 °F 81% 30.19 in 9.0 mi Calm Calm - 0.00 in Rain Light Rain
8:53 PM 72.0 °F 68.0 °F 87% 30.20 in 10.0 mi Calm Calm - 0.00 in   Overcast
9:53 PM 72.0 °F 68.0 °F 87% 30.21 in 10.0 mi Calm Calm - N/A   Overcast
10:30 PM 72.0 °F 68.0 °F 87% 30.19 in 10.0 mi Calm Calm - N/A   Overcast
10:53 PM 72.0 °F 68.0 °F 87% 30.20 in 10.0 mi Calm Calm - N/A   Overcast
11:13 PM 73.0 °F 68.0 °F 84% 30.18 in 10.0 mi Calm Calm - N/A   Overcast
11:53 PM 71.1 °F 68.0 °F 90% 30.19 in 10.0 mi Calm Calm - N/A   Mostly Cloudy